This is the latest recevied weather packets stored in our database for station/object K3JSE-2. If no packets are shown the sender has not sent any weather packets the latest 10 day(s).
| Time | Temp. | Humidity | Pressure | Rain* | Wind** | Luminosity | Snow |
|---|---|---|---|---|---|---|---|
| 1778271308 | 18.89° C | 37% | 1011.5 hPa | 0 mm | - | - | - |
| 1778271023 | 18.89° C | 40% | 1011.6 hPa | 0 mm | - | - | - |
| 1778270751 | 18.33° C | 40% | 1011.6 hPa | 0 mm | - | - | - |
| 1778270483 | 17.78° C | 43% | 1011.6 hPa | 0 mm | - | - | - |
| 1778270227 | 17.22° C | 40% | 1011.6 hPa | 0 mm | - | - | - |
| 1778269973 | 17.22° C | 40% | 1011.7 hPa | 0 mm | - | - | - |
| 1778269678 | 17.22° C | 38% | 1011.7 hPa | 0 mm | - | - | - |
| 1778269391 | 17.78° C | 37% | 1011.7 hPa | 0 mm | - | - | - |
| 1778269113 | 18.33° C | 37% | 1011.8 hPa | 0 mm | - | - | - |
| 1778268823 | 18.33° C | 38% | 1011.8 hPa | 0 mm | - | - | - |
| 1778268558 | 18.89° C | 39% | 1011.8 hPa | 0 mm | - | - | - |
| 1778268273 | 18.33° C | 37% | 1011.9 hPa | 0 mm | - | - | - |
| 1778267983 | 18.89° C | 38% | 1011.9 hPa | 0 mm | - | - | - |
| 1778267728 | 18.89° C | 38% | 1011.9 hPa | 0 mm | - | - | - |
| 1778267433 | 17.78° C | 38% | 1012 hPa | 0 mm | - | - | - |
| 1778267153 | 17.78° C | 39% | 1012 hPa | 0 mm | - | - | - |
| 1778266898 | 17.22° C | 38% | 1012 hPa | 0 mm | - | - | - |
| 1778266604 | 16.67° C | 40% | 1012 hPa | 0 mm | - | - | - |
| 1778266348 | 16.67° C | 39% | 1012 hPa | 0 mm | - | - | - |
| 1778266058 | 16.67° C | 37% | 1012 hPa | 0 mm | - | - | - |
| 1778265778 | 17.22° C | 36% | 1012 hPa | 0 mm | - | - | - |
| 1778265513 | 17.78° C | 36% | 1012 hPa | 0 mm | - | - | - |
| 1778265228 | 18.33° C | 37% | 1012 hPa | 0 mm | - | - | - |
| 1778264968 | 18.33° C | 38% | 1012 hPa | 0 mm | - | - | - |
| 1778264678 | 18.89° C | 38% | 1011.9 hPa | 0 mm | - | - | - |
* Rain latest hour (hover to see other rain measurements)
** Current wind speed in m/s (hover to see current wind gust speed)